Location: Aalen
(48.8330°N, 10.1000°E)
Time: 09:37:01
(UTC+02:00)

Transit 2A - Pass Details

Date: 30 July 2021
Orbit: 594 x 964 km, 66.7° (Epoch: 24 September)

Event Time Altitude Azimuth Distance (km) Brightness Sun altitude
Rises 17:02:50 0° 320° (NW) 3,224 9.5 37.1°
Reaches altitude 10° 17:05:12 10° 315° (NW) 2,352 9.0 36.7°
Maximum altitude 17:10:24 48° 242° (WSW) 1,087 8.7 35.8°
Drops below altitude 10° 17:16:06 10° 170° (S) 2,567 8.8 34.9°
Sets 17:18:46 0° 165° (SSE) 3,548 9.4 34.5°
